User: anonymous   Login
Location: Lawrence
(38.9720°N, 95.2350°W)
Time: 02:07:15
(UTC-05:00)
Language:

JAS-1B - Orbit

View from above orbital plane
View from above orbital plane
View from above satellite
View from above satellite

Ground track
Ground track

The orbit data is extracted from the following two-line orbital elements,

1 20480U 90013C   15185.72370154 -.00000021  00000-0  27803-4 0  9994
2 20480 099.0662 082.5905 0539966 207.7249 171.7562 12.83405798190204
Epoch (UTC): 04 July 2015 17:22:07
Eccentricity: 0.0539966
inclination: 99.0662°
perigee height: 912 km
apogee height: 1744 km
right ascension of ascending node: 82.5905°
argument of perigee: 207.7249°
revolutions per day: 12.83405798
mean anomaly at epoch: 171.7562°
orbit number at epoch: 19020

The dashed part of the orbit path shows where the satellite is in the earth's shadow,  

DLR